Tracking 17938 objects as of 21-February-2017
HD Live streaming from Space Station
objects crossing your sky now

SL-12 R/B(2)

Track SL-12 R/B(2) now!


NORAD ID: 24919
Int'l Code: 1997-046D
Perigee: 8,406.0 km
Apogee: 35,983.2 km
Inclination: 14.2 °
Period: 800.8 minutes
Semi major axis: 28565 km
RCS: 29.9426 m2 (large)
Launch date: August 28, 1997
Source: Commonwealth of Independent States (former USSR) (CIS)
Launch site: TYURATAM MISSILE AND SPACE COMPLEX (TTMTR)

Note: This is a ROCKET BODY
Your satellite tracking list
Your tracking list is empty





NASA's NSSDC Master Catalog

Two Line Element Set (TLE):
1 24919U 97046D   17052.11890170 -.00000090  00000-0  00000+0 0  9992
2 24919  14.1660  67.6270 4826986 144.0673 324.8433  1.79819754128000
Source of the keplerian elements: AFSPC